CW8250 Weather Reports


Display with metric or nautical units.
time (UTC)temp
F
wind
direction
speed
MPH
gust
MPH
rain 1hr
in
rain 24hr
in
rain mn
in
humidity
%
barometer
mb
20181019233001 34 60 0.0 0.0 0.00 0.00 0.00 92 1027.8
20181019232500 35 60 0.0 0.0 0.00 0.00 0.00 92 1027.8
20181019231000 35 60 0.0 0.0 0.00 0.00 0.00 92 1028.0
20181019230500 35 60 0.0 0.0 0.00 0.00 0.00 92 1028.0
20181019230001 35 60 0.0 0.0 0.00 0.00 0.00 92 1028.0
20181019225500 35 60 0.0 0.0 0.00 0.00 0.00 91 1028.0
20181019224500 35 60 0.0 0.0 0.00 0.00 0.00 92 1028.0
20181019223001 36 60 0.0 0.0 0.00 0.00 0.00 91 1028.0
20181019222500 36 60 0.0 0.0 0.00 0.00 0.00 91 1028.0
20181019222000 36 60 0.0 0.0 0.00 0.00 0.00 91 1028.0
20181019221500 36 60 0.0 0.0 0.00 0.00 0.00 91 1027.9
20181019221000 36 60 0.0 0.0 0.00 0.00 0.00 91 1027.6
20181019220000 37 60 0.0 0.0 0.00 0.00 0.00 91 1027.6
20181019215500 37 60 0.0 0.0 0.00 0.00 0.00 91 1027.6
20181019215001 37 60 0.0 0.0 0.00 0.00 0.00 91 1027.5
20181019214500 37 60 0.0 0.0 0.00 0.00 0.00 91 1027.5
20181019214000 37 60 0.0 0.0 0.00 0.00 0.00 91 1027.5
20181019213500 37 60 0.0 0.0 0.00 0.00 0.00 91 1027.5
20181019213001 38 60 0.0 0.0 0.00 0.00 0.00 91 1027.5
20181019212500 38 60 0.0 0.0 0.00 0.00 0.00 91 1027.5
20181019212001 38 60 0.0 0.0 0.00 0.00 0.00 91 1027.7
20181019211500 38 60 0.0 0.0 0.00 0.00 0.00 91 1027.7
20181019211001 38 60 0.0 0.0 0.00 0.00 0.00 91 1027.7
20181019210502 38 60 0.0 0.0 0.00 0.00 0.00 91 1027.6
20181019210000 38 60 0.0 0.0 0.00 0.00 0.00 91 1027.6
20181019205500 38 60 0.0 0.0 0.00 0.00 0.00 90 1027.6
20181019205001 39 60 0.0 0.0 0.00 0.00 0.00 91 1027.6
20181019204500 39 60 0.0 0.0 0.00 0.00 0.00 91 1027.6
20181019203500 39 60 0.0 0.0 0.00 0.00 0.00 90 1027.5
20181019203001 39 60 0.0 0.0 0.00 0.00 0.00 90 1027.5
20181019202001 39 60 0.0 0.0 0.00 0.00 0.00 90 1027.5
20181019201500 39 60 0.0 0.0 0.00 0.00 0.00 90 1027.5
20181019195500 40 60 0.0 0.0 0.00 0.00 0.00 90 1027.3
20181019195001 40 60 0.0 0.0 0.00 0.00 0.00 90 1027.3
20181019194501 40 60 0.0 0.0 0.00 0.00 0.00 90 1027.2
20181019194001 41 60 0.0 0.0 0.00 0.00 0.00 90 1027.2
20181019193002 41 60 0.0 0.0 0.00 0.00 0.00 89 1027.3
20181019192501 41 60 0.0 0.0 0.00 0.00 0.00 89 1027.2
20181019192001 41 60 0.0 0.0 0.00 0.00 0.00 89 1026.8
20181019190501 42 60 0.0 0.0 0.00 0.00 0.00 89 1026.8
20181019190001 42 60 0.0 0.0 0.00 0.00 0.00 89 1026.7
20181019185001 42 60 0.0 0.0 0.00 0.00 0.00 89 1026.7
20181019184500 42 60 0.0 0.0 0.00 0.00 0.00 89 1026.6
20181019183501 42 60 0.0 0.0 0.00 0.00 0.00 88 1026.6
20181019183001 42 60 0.0 0.0 0.00 0.00 0.00 88 1026.6
20181019182500 43 60 0.0 0.0 0.00 0.00 0.00 88 1026.6
20181019181500 43 60 0.0 0.0 0.00 0.00 0.00 87 1026.4
20181019181001 43 60 0.0 0.0 0.00 0.00 0.00 87 1026.4
20181019180501 44 60 0.0 0.0 0.00 0.00 0.00 87 1026.5
20181019180001 44 60 0.0 0.0 0.00 0.00 0.00 87 1026.5
20181019175001 45 60 0.0 0.0 0.00 0.00 0.00 86 1026.3
20181019174001 45 60 0.0 0.0 0.00 0.00 0.00 86 1026.2
20181019173002 46 60 0.0 0.0 0.00 0.00 0.00 85 1026.2
20181019172500 46 60 0.0 0.0 0.00 0.00 0.00 85 1026.2
20181019172001 46 60 0.0 0.0 0.00 0.00 0.00 84 1026.1
20181019171500 47 60 0.0 0.0 0.00 0.00 0.00 84 1026.1
20181019171001 47 60 0.0 0.0 0.00 0.00 0.00 83 1026.0
20181019170000 48 60 0.0 0.0 0.00 0.00 0.00 82 1025.8
20181019164001 49 60 0.0 0.0 0.00 0.00 0.00 80 1025.7
20181019163501 50 60 0.0 0.0 0.00 0.00 0.00 79 1025.7
20181019162001 51 60 0.0 0.0 0.00 0.00 0.00 77 1025.3
20181019161500 52 60 0.0 0.0 0.00 0.00 0.00 76 1025.3
20181019161002 53 60 0.0 0.0 0.00 0.00 0.00 75 1025.3
20181019160501 53 60 0.0 0.0 0.00 0.00 0.00 74 1025.3
20181019155500 54 60 0.0 0.0 0.00 0.00 0.00 73 1025.3
20181019155001 54 60 0.0 0.0 0.00 0.00 0.00 72 1025.3
20181019154500 55 60 0.0 0.0 0.00 0.00 0.00 71 1025.3
20181019154001 55 60 0.0 0.0 0.00 0.00 0.00 71 1025.3
20181019153502 55 60 0.0 0.0 0.00 0.00 0.00 70 1025.3
20181019152501 56 60 0.0 1.0 0.00 0.00 0.00 70 1025.3
20181019152001 56 49 1.0 6.0 0.00 0.00 0.00 69 1025.3
20181019151501 56 36 0.0 3.0 0.00 0.00 0.00 68 1025.3
20181019145501 57 106 2.0 5.0 0.00 0.00 0.00 68 1025.4
20181019144501 57 65 2.0 3.0 0.00 0.00 0.00 68 1025.4
20181019144001 57 81 0.0 0.0 0.00 0.00 0.00 68 1025.4
20181019143501 57 81 0.0 0.0 0.00 0.00 0.00 68 1025.3
20181019143002 57 82 0.0 1.0 0.00 0.00 0.00 68 1025.3
20181019142002 57 69 3.0 7.0 0.00 0.00 0.00 70 1025.4
20181019141501 57 75 3.0 5.0 0.00 0.00 0.00 69 1025.4
20181019141001 57 30 1.0 6.0 0.00 0.00 0.00 68 1025.4
20181019140501 57 58 1.0 7.0 0.00 0.00 0.00 68 1025.4
20181019140001 57 58 3.0 6.0 0.00 0.00 0.00 70 1025.5
20181019135001 57 52 0.0 5.0 0.00 0.00 0.00 69 1025.5
20181019134500 57 23 3.0 6.0 0.00 0.00 0.00 70 1025.5
20181019134001 57 60 2.0 5.0 0.00 0.00 0.00 69 1025.5
20181019133501 58 96 3.0 5.0 0.00 0.00 0.00 68 1025.7
20181019133002 58 69 4.0 7.0 0.00 0.00 0.00 69 1025.7
20181019132500 57 80 2.0 5.0 0.00 0.00 0.00 69 1025.7
20181019132001 57 71 1.0 5.0 0.00 0.00 0.00 68 1025.7
20181019131500 57 79 3.0 6.0 0.00 0.00 0.00 69 1025.7
20181019130501 57 75 1.0 3.0 0.00 0.00 0.00 69 1025.9
20181019130001 57 109 1.0 5.0 0.00 0.00 0.00 69 1025.9
20181019125501 57 100 4.0 7.0 0.00 0.00 0.00 70 1025.9
20181019125002 56 84 2.0 6.0 0.00 0.00 0.00 72 1025.9
20181019124501 56 63 0.0 3.0 0.00 0.00 0.00 69 1025.9
20181019123500 57 90 1.0 7.0 0.00 0.00 0.00 69 1025.9
20181019123001 57 83 2.0 6.0 0.00 0.00 0.00 70 1025.9
20181019122501 57 47 2.0 5.0 0.00 0.00 0.00 70 1025.9
20181019122002 57 79 4.0 8.0 0.00 0.00 0.00 69 1025.9
20181019121501 57 57 3.0 6.0 0.00 0.00 0.00 71 1026.0
20181019121002 57 51 2.0 5.0 0.00 0.00 0.00 70 1026.0
20181019115501 57 60 1.0 3.0 0.00 0.00 0.00 70 1026.2
20181019114501 57 90 2.0 5.0 0.00 0.00 0.00 71 1026.2
20181019114001 57 63 3.0 6.0 0.00 0.00 0.00 69 1026.2
20181019113002 57 55 2.0 5.0 0.00 0.00 0.00 71 1026.3
20181019112501 56 71 2.0 6.0 0.00 0.00 0.00 72 1026.3
20181019110501 38 59 1.0 5.0 0.00 0.00 0.00 93 1026.4
20181019110001 38 104 3.0 8.0 0.00 0.00 0.00 93 1026.4
20181019105502 38 74 2.0 6.0 0.00 0.00 0.00 93 1026.4
20181019105001 38 98 3.0 9.0 0.00 0.00 0.00 93 1026.4
20181019104501 38 68 4.0 6.0 0.00 0.00 0.00 93 1026.4
20181019104002 38 63 1.0 7.0 0.00 0.00 0.00 93 1026.4
20181019103001 38 101 3.0 6.0 0.00 0.00 0.00 93 1026.4
20181019102002 38 69 1.0 3.0 0.00 0.00 0.00 93 1026.5
20181019101501 38 57 0.0 3.0 0.00 0.00 0.00 93 1026.5
20181019101002 38 62 3.0 5.0 0.00 0.00 0.00 93 1026.5
20181019100501 38 78 2.0 5.0 0.00 0.00 0.00 93 1026.7
20181019095501 38 75 0.0 2.0 0.00 0.00 0.00 93 1026.7
20181019095001 38 81 1.0 3.0 0.00 0.00 0.00 93 1026.7
20181019094501 38 64 2.0 3.0 0.00 0.00 0.00 93 1026.7
20181019094002 38 68 0.0 0.0 0.00 0.00 0.00 93 1026.7
20181019091001 38 74 1.0 3.0 0.00 0.00 0.00 93 1026.7
20181019090002 38 64 2.0 3.0 0.00 0.00 0.00 93 1026.9
20181019085501 38 77 1.0 3.0 0.00 0.00 0.00 93 1026.9
20181019085001 38 77 0.0 3.0 0.00 0.00 0.00 93 1026.9
20181019084501 38 76 1.0 3.0 0.00 0.00 0.00 93 1026.9
20181019084001 38 74 1.0 3.0 0.00 0.00 0.00 93 1026.9
20181019083501 38 72 1.0 2.0 0.00 0.00 0.00 93 1026.9
20181019083002 38 71 1.0 3.0 0.00 0.00 0.00 93 1026.9
20181019082500 38 76 0.0 3.0 0.00 0.00 0.00 93 1026.9
20181019082001 38 77 0.0 2.0 0.00 0.00 0.00 93 1026.9
20181019081501 38 63 0.0 3.0 0.00 0.00 0.00 93 1026.9
20181019081001 38 63 0.0 0.0 0.00 0.00 0.00 93 1026.9
20181019080501 38 61 0.0 3.0 0.00 0.00 0.00 93 1026.9
20181019080001 38 82 0.0 0.0 0.00 0.00 0.00 93 1026.9
20181019074501 38 89 0.0 3.0 0.00 0.00 0.00 93 1026.9
20181019072501 38 66 0.0 0.0 0.00 0.00 0.00 93 1026.8
20181019071002 38 66 0.0 0.0 0.00 0.00 0.00 93 1026.7
20181019070001 38 0 0.0 0.0 0.00 0.00 0.00 93 1026.7
20181019065501 38 0 0.0 0.0 0.00 0.00 0.00 93 1026.7
20181019065001 38 0 0.0 0.0 0.00 0.00 0.00 93 1026.7
20181019064002 38 0 0.0 0.0 0.00 0.00 0.00 93 1026.5
20181019063501 38 0 0.0 0.0 0.00 0.00 0.00 93 1026.5
20181019063002 38 0 0.0 0.0 0.00 0.00 0.00 93 1026.5
20181019062502 38 0 0.0 0.0 0.00 0.00 0.00 93 1026.5
20181019062001 38 0 0.0 0.0 0.00 0.00 0.00 93 1026.5
20181019061501 38 0 0.0 0.0 0.00 0.00 0.00 93 1026.5
20181019060003 38 0 0.0 0.0 0.00 0.00 0.00 93 1026.4
20181019055501 38 0 0.0 0.0 0.00 0.00 0.00 93 1026.4
20181019055002 38 0 0.0 0.0 0.00 0.00 0.00 93 1026.4
20181019054001 38 0 0.0 0.0 0.00 0.00 0.00 93 1026.4
20181019053502 38 0 0.0 0.0 0.00 0.00 0.00 93 1026.4
20181019053001 38 0 0.0 0.0 0.00 0.00 0.00 93 1026.4
20181019052002 38 0 0.0 0.0 0.00 0.00 0.00 93 1026.2
20181019051003 38 0 0.0 0.0 0.00 0.00 0.00 93 1026.2
20181019050501 38 0 0.0 0.0 0.00 0.00 0.00 93 1026.2
20181019045002 38 0 0.0 0.0 0.00 0.00 0.00 93 1026.2
20181019044502 38 0 0.0 0.0 0.00 0.00 0.00 93 1026.2
20181019044002 38 0 0.0 0.0 0.00 0.00 0.00 93 1026.2
20181019043002 39 0 0.0 0.0 0.00 0.00 0.00 93 1026.2
20181019042501 39 0 0.0 0.0 0.00 0.00 0.00 93 1026.3
20181019041501 39 0 0.0 0.0 0.00 0.00 0.00 93 1026.3
20181019041003 39 0 0.0 0.0 0.00 0.00 0.00 93 1026.2
20181019040502 39 0 0.0 0.0 0.00 0.00 0.00 93 1026.4
20181019040002 39 0 0.0 0.0 0.00 0.00 0.00 93 1026.4
20181019035002 38 0 0.0 0.0 0.00 0.00 0.00 93 1026.4
20181019034502 38 0 0.0 0.0 0.00 0.00 0.00 93 1026.4
20181019034001 38 0 0.0 0.0 0.00 0.00 0.00 93 1026.4
20181019033502 38 0 0.0 0.0 0.00 0.00 0.00 93 1026.4
20181019033002 38 0 0.0 0.0 0.00 0.00 0.00 93 1026.4
20181019032501 38 0 0.0 0.0 0.00 0.00 0.00 93 1026.5
20181019032002 38 0 0.0 0.0 0.00 0.00 0.00 93 1026.5
20181019031501 38 0 0.0 0.0 0.00 0.00 0.00 93 1026.5
20181019031001 38 0 0.0 0.0 0.00 0.00 0.00 93 1026.5
20181019030002 37 0 0.0 0.0 0.00 0.00 0.00 93 1026.4
20181019025501 37 0 0.0 0.0 0.00 0.00 0.00 93 1026.4
20181019024501 37 0 0.0 0.0 0.00 0.00 0.00 93 1026.5
20181019022502 36 0 0.0 0.0 0.00 0.00 0.00 92 1026.5
20181019021502 36 0 0.0 0.0 0.00 0.00 0.00 92 1026.5
20181019021002 37 0 0.0 0.0 0.00 0.00 0.00 92 1026.5
20181019014002 37 0 0.0 0.0 0.00 0.00 0.00 92 1026.5
20181019013502 37 0 0.0 0.0 0.00 0.00 0.00 92 1026.5
20181019013002 37 0 0.0 0.0 0.00 0.00 0.00 92 1026.6
20181019012501 37 0 0.0 0.0 0.00 0.00 0.00 92 1026.6
20181019012002 37 0 0.0 0.0 0.00 0.00 0.00 92 1026.6
20181019011002 37 0 0.0 0.0 0.00 0.00 0.00 92 1026.6
20181019010002 37 0 0.0 0.0 0.00 0.00 0.00 92 1026.6
20181019005502 37 0 0.0 0.0 0.00 0.00 0.00 92 1026.6
20181019005002 37 0 0.0 0.0 0.00 0.00 0.00 92 1026.6
20181019004502 37 0 0.0 0.0 0.00 0.00 0.00 92 1026.6
20181019004002 37 0 0.0 0.0 0.00 0.00 0.00 92 1026.6
20181019003502 37 0 0.0 0.0 0.00 0.00 0.00 92 1026.5
20181019003003 37 0 0.0 0.0 0.00 0.00 0.00 92 1026.4
20181019002501 37 0 0.0 0.0 0.00 0.00 0.00 92 1026.4
20181019001502 38 0 0.0 0.0 0.00 0.00 0.00 92 1026.4
20181019001002 38 0 0.0 0.0 0.00 0.00 0.00 92 1026.7
20181019000002 39 0 0.0 0.0 0.00 0.00 0.00 92 1026.7
20181018235502 39 0 0.0 0.0 0.00 0.00 0.00 92 1026.7
20181018235003 39 0 0.0 0.0 0.00 0.00 0.00 92 1026.7
20181018234502 39 0 0.0 0.0 0.00 0.00 0.00 92 1026.7
20181018234002 39 0 0.0 0.0 0.00 0.00 0.00 92 1026.7
20181018233503 39 0 0.0 0.0 0.00 0.00 0.00 92 1026.7